Overview Statistics Trail Chart Weather Telemetry Raw packets
 

This is the latest recevied weather packets stored in our database for station/object DL0BB-10. If no packets are shown the sender has not sent any weather packets the latest 10 day(s).

<< 26 27 28 29 30 31 32 >>
Time Temp. Humidity Pressure Rain* Wind** Luminosity Snow
1788087582 25.56° C 41% 1017 hPa - - - -
1788086682 26.11° C 40% 1017.1 hPa - - - -
1788085781 26.67° C 39% 1017.1 hPa - - - -
1788084881 25.56° C 41% 1017 hPa - - - -
1788083981 25.56° C 40% 1017.1 hPa - - - -
1788083081 26.11° C 39% 1017 hPa - - - -
1788082181 26.67° C 38% 1017.2 hPa - - - -
1788081281 25.56° C 40% 1017.1 hPa - - - -
1788080379 25.56° C 40% 1017.2 hPa - - - -
1788079482 26.11° C 39% 1017.2 hPa - - - -
1788078581 26.11° C 39% 1017.2 hPa - - - -
1788077681 25° C 41% 1017.2 hPa - - - -
1788076781 25.56° C 40% 1017.2 hPa - - - -
1788075881 26.11° C 39% 1017.1 hPa - - - -
1788074981 25.56° C 39% 1016.9 hPa - - - -
1788074081 25° C 40% 1016.8 hPa - - - -
1788073181 25.56° C 40% 1016.8 hPa - - - -
1788072281 26.11° C 39% 1016.7 hPa - - - -
1788071381 25.56° C 40% 1016.6 hPa - - - -
1788070481 25° C 40% 1016.5 hPa - - - -
1788069580 25.56° C 40% 1016.2 hPa - - - -
1788068680 26.11° C 39% 1016.2 hPa - - - -
1788067780 25.56° C 40% 1016.4 hPa - - - -
1788066880 25.56° C 40% 1016.3 hPa - - - -
1788065980 25.56° C 39% 1016.3 hPa - - - -

* Rain since midnight (hover to see other rain measurements)
** Current wind speed in m/s (hover to see current wind gust speed)